Skip to content.

Wairarapa Tararua

  

Crofoot - CRF

Logged in to unit HSN11772 as: Guest
(Last data received Fri 23 Feb 2018 05:40:00 - 6 minutes ago)

Weather FWI Graphs Forecast Hourly FWI Daily FWI Download FWI Data

Hourly FWI Logs | Period From 05:47 22/02/2018 to 05:47 23/02/2018

Change the DoC% for the 24hr period starting 12:00pm 22/2/2018 to

If the date above is the current day, then all future logs will inherit this value until such time as it is changed again. If you wish to change historic values you can do so by going back to the day you want to alter (navigate via the graphs) and change the DoC% there (however this will only affect that day).

WindRainHourly FWIsDaily FWIsForestGrassScrub
DateTime (NZST)Temp (C)RH (%)Dir (deg)Speed (km/h)Hourly (mm)Daily (mm)FFMCISIHFWIFFMCDMCDCISIBUIFWIDSRROS (m/h)FFI (kW/m)FFDCDoC (%)ROS (m/h)GFI (kW/m)GFDCROS (m/h)SFI (kW/m)SFDC
23/02/2018 0400 12.0 77.7 297 21.9 0.0 57.1 1.0 0.6 8 2 L 75 25 43 M 147 1465 H
23/02/2018 0300 11.9 81.2 305 18.6 0.0 55.3 0.7 0.5 5 1 L 75 15 25 M 93 927 H
23/02/2018 0200 12.1 80.7 289 22.8 0.0 53.7 0.8 0.5 5 1 L 75 16 28 M 101 1010 H
23/02/2018 0100 11.8 81.3 295 24.4 0.0 51.9 0.7 0.4 4 1 L 75 13 23 M 86 864 H
23/02/2018 0000 11.9 82.6 296 21.9 0.0 50.0 0.5 0.3 2 1 L 75 7 13 M 52 522 H
22/02/2018 2300 12.3 79.7 282 19.0 0.0 48.2 0.3 0.2 1 0 L 75 4 7 L 30 299 M
22/02/2018 2200 12.6 80.6 270 20.3 0.0 46.1 0.3 0.2 1 0 L 75 3 5 L 21 213 M
22/02/2018 2100 12.6 81.9 259 23.6 0.0 43.9 0.2 0.1 1 0 L 75 2 4 L 17 166 M
22/02/2018 2000 13.0 82.4 247 29.8 0.0 41.7 0.2 0.1 1 0 L 75 2 3 L 15 150 M
22/02/2018 1900 13.1 83.3 237 31.5 0.0 39.1 0.1 0.1 0 0 L 75 1 2 L 8 84 M
22/02/2018 1800 14.3 78.4 220 48.0 0.0 36.5 0.2 0.1 1 0 L 75 2 3 L 14 143 M
22/02/2018 1700 14.6 80.9 217 53.0 0.0 32.6 0.1 0.1 0 0 L 75 0 1 L 4 37 M
22/02/2018 1600 15.1 77.8 216 52.6 0.0 28.7 0.0 0.0 0 0 L 75 0 0 L 1 8 L
22/02/2018 1500 15.3 75.6 218 58.0 0.0 24.2 0.0 0.0 0 0 L 75 0 0 L 0 1 L
22/02/2018 1400 15.1 78.7 216 58.0 0.0 19.1 0.0 0.0 0 0 L 75 0 0 L 0 0 L
22/02/2018 1300 14.8 80.2 225 48.9 0.0 14.3 0.0 0.0 0 0 L 75 0 0 L 0 0 L
22/02/2018 1200 15.4 78.0 223 49.3 0.0 26.6 10.0 0.0 0.0 51.8 5.6 198.0 2.4 10.4 2.4 0.1 0 0 L 75 0 0 L 0 0 L
22/02/2018 1100 15.1 85.0 224 46.8 0.2 5.3 0.0 0.0 0 0 L 75 0 0 L 0 0 L
22/02/2018 1000 13.1 92.0 226 35.2 0.2 2.5 0.0 0.0 0 0 L 75 0 0 L 0 0 L
22/02/2018 0900 12.4 93.5 245 35.2 0.8 1.5 0.0 0.0 0 0 L 75 0 0 L 0 0 L
22/02/2018 0800 12.3 95.6 220 35.2 4.2 1.1 0.0 0.0 0 0 L 75 0 0 L 0 0 L
22/02/2018 0700 12.3 95.9 214 39.3 7.2 1.7 0.0 0.0 0 0 L 75 0 0 L 0 0 L
22/02/2018 0600 12.1 96.3 214 35.6 4.0 5.1 0.0 0.0 0 0 L 75 0 0 L 0 0 L
22/02/2018 0500 12.6 96.3 214 35.2 4.4 9.9 0.0 0.0 0 0 L 75 0 0 L 0 0 L